Theta_e
341 343 343 342 341 342 342 341 342 342 339 336 333 339 338 338 338 338 337 338 346 343 339 335 339 338 338 337 334 338 338 338 333 335 333 331 330 332 334 334 334 334 334 333 334 333 333 332 333 332 332 332 331 331 330 330 330 329 329 328 328 328 329 330 330 330 330 329 329 329 329 329 329 330 329 329 330 331 330 330 331 332 333 333 332
341 342 341 341 341 341 341 342 342 343 342 338 338 337 338 338 339 338 336 342 343 337 338 337 335 334 337 335 340 337 337 337 335 333 332 331 331 333 335 334 334 334 333 334 334 334 334 334 333 333 333 332 332 330 330 330 329 329 329 329 328 328 328 328 329 329 329 329 329 329 329 329 330 330 330 330 330 330 330 331 331 332 332 332 332
340 341 343 342 341 341 340 343 342 341 341 340 338 336 335 336 337 338 337 340 338 338 338 337 335 332 334 335 335 338 337 338 335 333 332 330 330 331 332 334 335 336 335 335 334 334 333 333 334 334 334 333 331 331 330 330 330 329 329 328 328 328 327 328 328 328 328 329 329 329 329 328 329 329 329 330 330 330 330 330 331 332 332 331 332
341 339 342 342 342 341 343 343 342 340 340 341 340 337 336 334 335 339 340 341 339 339 338 338 334 331 334 334 334 336 337 336 337 336 332 330 329 329 331 333 336 336 336 335 334 334 335 335 334 334 334 333 332 332 332 330 331 330 329 329 329 328 328 328 328 328 328 328 328 328 328 328 328 328 328 328 328 329 329 330 331 331 331 331 332
342 341 341 341 342 343 343 342 343 342 341 340 341 340 339 336 336 339 338 341 339 337 339 338 335 333 336 335 336 335 336 338 337 337 334 330 329 330 331 332 332 338 337 334 334 335 336 336 336 336 335 333 334 334 333 332 330 330 329 329 328 329 329 328 328 328 328 329 328 328 328 328 328 328 328 328 328 328 329 330 331 331 331 332 332
341 341 341 342 343 342 341 342 341 340 342 341 340 341 339 336 333 335 338 338 338 336 340 339 335 334 336 337 334 337 339 338 336 338 338 333 331 331 331 332 334 336 335 337 336 337 336 337 336 336 335 335 334 334 334 333 333 331 331 329 329 329 329 329 328 328 328 328 328 328 327 327 327 327 327 328 328 328 329 330 330 330 331 332 332
342 342 341 342 340 339 339 340 340 340 340 341 341 340 339 335 334 333 333 336 335 336 337 336 334 332 335 342 338 337 341 339 339 338 336 337 334 331 332 334 334 335 336 336 338 338 338 338 338 337 335 336 335 336 335 334 334 333 332 330 329 329 329 329 329 328 329 328 328 328 328 328 327 327 328 328 329 329 331 330 330 330 331 331 331
342 343 342 341 339 338 339 341 340 340 341 341 339 337 338 335 340 333 331 333 333 336 337 335 335 334 337 341 342 340 338 339 338 337 334 337 333 334 334 335 334 334 338 336 336 338 339 338 338 338 336 336 337 337 337 335 334 334 333 330 330 330 329 330 329 329 329 328 329 328 328 328 328 328 328 328 329 330 330 330 330 330 331 331 331
343 342 342 340 340 340 341 342 343 341 341 340 339 340 338 336 338 336 333 331 332 334 333 334 334 335 337 338 335 338 338 338 338 338 340 338 336 334 335 336 337 341 337 337 336 336 339 338 339 338 338 337 338 336 336 337 335 335 333 331 330 330 331 330 330 330 329 329 329 329 328 328 328 328 328 328 330 331 331 330 330 331 331 331 330
344 343 343 342 341 340 341 342 341 340 341 339 338 338 337 337 336 335 334 334 334 332 331 332 334 336 336 337 332 333 332 336 338 339 338 336 335 335 333 338 339 337 337 337 338 337 336 338 339 338 338 338 337 337 337 338 337 336 334 332 332 331 331 331 331 330 330 330 330 329 329 328 329 328 328 329 330 330 330 330 330 331 330 330 329
342 343 343 342 340 340 340 341 341 340 340 339 338 337 336 337 336 335 336 337 331 333 337 337 337 330 329 334 332 330 334 335 334 335 338 338 334 336 336 335 337 338 337 337 338 338 336 335 336 335 336 338 337 337 336 337 336 336 334 333 333 332 331 331 332 331 331 330 331 330 329 329 329 329 329 330 331 330 330 329 329 329 329 328 328
339 340 340 340 338 339 340 341 340 340 339 337 337 337 335 334 334 334 333 335 335 334 334 334 333 330 328 330 335 333 334 334 333 336 337 338 337 337 337 336 335 336 337 337 337 338 337 336 336 335 335 336 337 337 338 336 336 337 335 335 334 333 333 333 333 333 332 331 331 331 330 330 330 329 329 330 330 330 329 329 329 328 327 327 326
336 338 340 338 337 338 340 341 340 339 338 337 338 338 338 336 334 334 332 332 332 334 335 335 331 329 328 330 329 333 336 336 335 336 336 336 339 336 338 335 335 335 335 338 337 337 337 336 335 334 335 335 335 336 337 337 337 336 337 336 335 334 334 334 335 335 333 333 332 331 331 330 330 329 329 330 330 329 328 328 328 327 327 325 324
339 341 341 340 339 339 340 339 340 338 338 338 339 338 338 336 336 334 335 331 331 334 333 331 325 325 324 324 324 328 331 331 333 335 337 338 336 335 335 334 333 334 336 337 336 337 336 336 336 334 334 334 334 334 335 335 335 336 336 336 336 336 336 335 336 333 334 334 333 331 331 331 331 330 330 331 330 328 327 327 326 326 325 324 323
344 343 342 342 341 340 340 341 340 339 337 337 338 336 336 336 335 333 332 333 333 335 332 331 326 327 329 323 320 320 323 326 331 331 333 333 338 335 334 333 334 336 336 335 335 337 334 333 334 334 334 334 334 334 334 335 334 336 336 336 335 335 336 335 334 334 334 334 334 333 332 331 331 330 331 331 329 327 327 326 326 325 323 323 323
343 343 342 341 341 340 340 340 340 340 339 337 336 335 336 335 334 333 332 329 330 330 333 332 331 327 320 319 319 319 316 320 324 328 331 333 335 333 333 332 335 335 335 335 335 333 331 331 331 334 334 335 335 335 335 334 336 336 336 335 336 336 337 337 335 333 333 334 334 334 332 332 331 331 331 331 328 327 326 325 325 324 323 323 323
343 342 341 341 341 341 340 340 340 340 338 336 336 336 336 335 335 333 332 329 327 329 331 333 331 332 326 320 318 317 315 320 323 324 329 329 332 335 334 334 333 333 335 336 337 334 333 333 334 336 336 336 335 336 335 336 336 336 335 334 334 336 334 335 336 334 335 334 334 335 333 332 331 331 331 329 327 326 326 324 323 323 323 323 322
343 341 339 340 340 341 341 339 338 339 339 337 337 337 336 335 335 334 332 332 330 328 327 331 332 330 331 329 330 319 318 321 322 316 327 331 331 333 332 332 332 333 333 336 336 333 334 333 335 334 335 335 334 333 334 334 336 335 334 333 333 336 332 334 336 335 334 334 335 334 334 332 332 331 330 328 327 327 326 324 323 323 323 322 322
341 340 341 340 341 341 340 340 338 338 339 338 336 334 336 336 336 334 333 332 331 327 327 327 329 327 329 331 331 330 332 324 319 320 315 323 328 328 330 331 332 332 332 331 334 333 331 331 334 332 334 333 334 333 332 334 337 336 335 332 332 333 330 330 334 336 334 335 333 332 334 333 333 331 330 329 328 327 325 323 322 322 321 321 322
341 341 341 341 340 339 339 339 339 338 338 337 337 336 335 335 336 335 335 334 331 328 327 328 325 324 328 327 328 329 330 329 325 322 320 316 320 327 329 330 330 330 331 331 331 333 329 331 333 331 331 332 332 331 331 333 333 333 333 329 331 331 331 330 329 331 334 334 334 332 331 334 333 332 330 329 328 327 324 321 321 321 321 321 321
341 341 340 340 339 339 338 338 339 338 337 337 338 335 334 332 333 334 333 333 332 331 329 327 328 326 327 326 327 325 326 327 328 326 320 318 319 320 322 327 329 330 332 333 333 333 332 331 331 329 330 330 329 329 330 330 333 333 331 328 330 330 329 329 324 322 325 333 332 332 331 332 333 332 330 328 327 325 322 321 321 322 322 322 321
340 340 340 340 340 340 339 338 338 338 337 335 336 336 334 333 332 333 334 332 333 331 329 329 329 329 328 327 324 323 324 325 325 324 324 323 319 320 322 321 319 324 330 331 332 332 331 333 331 329 329 329 328 327 328 331 333 333 329 326 328 327 328 327 322 320 321 326 331 330 330 332 332 332 329 328 327 325 322 321 322 322 322 321 320
337 339 342 340 340 339 340 339 337 339 337 336 336 335 334 335 334 334 334 333 332 331 330 329 330 329 329 328 326 324 323 321 322 323 323 321 321 321 322 324 322 322 326 330 331 331 331 331 327 328 328 328 328 326 326 328 332 330 326 325 325 327 327 322 319 317 324 327 328 328 329 329 331 330 328 326 326 324 322 322 322 322 321 320 320
336 336 338 339 339 340 340 339 338 335 336 335 335 335 334 335 334 334 333 333 333 331 329 328 329 328 328 328 328 329 327 325 325 326 324 324 322 321 321 324 325 325 328 329 332 330 331 331 329 328 328 327 328 327 326 327 329 327 326 324 324 326 325 321 317 318 318 321 323 324 329 330 331 328 327 326 326 323 322 322 322 321 321 320 320
335 335 337 342 341 339 338 338 335 337 335 334 335 335 333 334 333 334 333 331 332 331 329 329 329 327 327 329 328 328 328 329 330 328 328 327 325 322 323 324 320 321 327 329 326 330 330 330 330 334 330 329 328 327 329 329 328 327 326 323 323 322 322 323 322 318 315 315 319 324 329 328 328 327 326 326 325 323 322 322 322 320 320 320 319
334 335 338 337 338 335 335 337 337 335 334 333 335 334 334 334 334 333 332 331 331 331 331 331 330 329 330 328 327 327 327 329 330 329 326 326 323 322 321 321 322 321 325 325 328 325 328 333 335 332 337 331 329 327 328 328 327 325 325 323 320 319 318 321 324 322 319 318 321 323 326 327 327 327 326 326 323 322 323 320 318 316 313 313 316
334 336 337 337 337 337 336 334 334 334 333 333 334 334 333 332 332 333 333 333 332 331 331 331 330 330 330 328 328 328 329 330 330 328 330 328 325 324 322 318 318 319 319 323 325 325 325 329 332 331 331 331 329 326 326 327 326 324 323 323 321 317 317 319 322 323 321 320 320 320 321 323 324 325 325 323 322 319 317 318 317 315 314 315 319
335 335 336 336 335 334 336 335 334 334 334 333 334 333 332 332 334 331 331 333 331 331 330 331 330 331 330 329 329 329 331 331 330 330 331 329 328 327 325 322 317 314 317 318 320 322 328 327 331 333 332 330 328 326 325 325 325 322 323 324 321 318 317 317 321 324 321 320 318 316 317 318 318 319 317 318 318 317 318 318 317 316 315 316 320
334 335 335 336 335 335 334 335 334 333 331 330 331 331 332 331 331 331 330 331 331 330 330 329 331 331 331 330 330 330 331 332 330 331 331 330 329 329 328 325 323 317 315 315 317 319 324 326 323 327 333 332 328 325 324 324 323 323 325 324 322 320 317 316 317 318 318 318 320 318 317 316 316 316 318 319 319 319 319 317 315 315 314 317 321
333 334 334 334 334 335 334 333 332 332 333 333 332 330 330 331 331 330 331 332 331 331 330 330 331 332 332 331 330 330 331 332 331 332 331 329 328 329 328 327 326 321 319 315 316 322 322 325 326 324 328 329 328 324 323 322 322 322 323 324 323 322 315 315 314 312 312 315 315 313 312 313 315 317 320 318 318 317 315 314 314 313 314 319 320
330 332 332 332 333 333 333 333 332 332 332 332 332 330 329 329 329 330 331 331 329 328 328 329 330 330 330 330 330 330 331 331 331 332 331 329 330 330 328 328 326 325 323 320 316 322 325 321 326 329 328 328 327 323 322 322 323 321 321 323 323 319 316 316 313 312 312 313 311 312 314 313 314 316 317 318 318 317 315 315 314 314 317 320 318
328 330 331 331 331 331 331 331 330 331 330 331 330 328 329 329 328 328 330 330 329 328 329 330 328 328 328 329 330 331 331 331 331 331 331 330 329 328 329 329 329 328 324 322 320 320 326 324 326 328 328 326 327 322 321 321 322 320 322 322 321 318 317 317 312 311 312 311 311 313 317 314 312 315 317 318 318 317 316 317 314 316 317 315 314
325 327 330 330 330 330 330 329 329 329 329 328 330 330 329 329 329 329 329 327 327 327 328 328 329 328 328 329 330 331 331 330 330 330 329 331 330 330 330 329 328 327 323 323 320 320 324 327 326 327 328 327 324 322 318 317 318 318 318 323 320 319 319 318 315 311 311 310 310 311 312 310 311 317 316 316 317 316 315 313 312 312 310 311 311
323 326 329 329 329 329 328 327 328 328 328 329 330 330 329 328 327 328 327 327 329 327 328 327 328 328 328 329 329 330 331 331 330 329 330 329 329 329 329 328 326 326 327 324 321 319 319 324 323 328 328 333 328 322 317 315 314 313 312 321 321 319 318 319 317 314 309 311 310 310 311 309 309 313 311 311 312 311 312 310 309 308 309 308 305
321 322 324 324 325 325 325 326 327 327 327 328 329 329 328 328 327 328 327 326 327 326 326 327 328 327 326 327 328 330 331 329 330 330 330 329 329 329 328 328 326 326 327 326 322 320 319 320 323 323 325 325 322 320 317 315 313 310 313 320 318 317 317 318 317 317 309 309 308 308 309 309 309 310 310 309 310 310 310 309 308 308 306 306 303
317 319 319 318 319 321 322 325 326 327 327 328 327 328 328 327 326 327 328 327 326 326 326 327 327 327 327 328 329 328 329 329 329 328 329 329 329 328 328 326 326 326 326 326 326 322 321 320 321 322 325 322 324 326 317 315 311 308 313 321 321 319 318 317 315 317 312 308 308 308 309 309 308 309 309 308 309 308 308 308 307 306 306 304 305
313 314 315 317 317 317 318 323 326 327 327 327 326 327 328 329 328 327 327 327 327 327 327 328 327 326 327 326 328 329 329 328 329 328 329 329 330 326 325 326 326 327 327 328 328 328 323 321 323 324 324 326 327 323 318 314 312 310 310 321 320 319 317 316 315 315 313 309 308 308 308 308 308 308 308 307 307 307 306 306 306 306 305 305 304
311 312 312 313 315 314 316 319 327 327 327 326 323 325 327 327 327 327 326 325 325 326 327 328 328 328 329 327 327 326 326 328 329 329 329 329 329 328 327 326 326 325 325 328 327 327 325 323 322 320 323 323 323 322 323 317 312 309 307 310 318 317 314 311 314 316 316 312 312 311 309 308 307 307 307 307 306 305 305 305 305 305 304 304 303
309 309 309 310 312 313 313 317 312 309 307 305 305 305 312 322 326 326 325 326 328 328 327 327 328 329 328 329 327 328 328 329 328 329 329 328 328 325 326 324 326 324 324 326 325 325 325 323 320 319 320 323 321 320 322 318 315 310 306 305 308 312 311 308 309 314 313 312 312 309 310 310 311 310 307 305 305 305 305 304 304 304 304 303 301
307 307 307 308 309 310 310 312 310 307 304 302 301 300 302 306 314 321 324 325 325 325 326 326 327 327 327 328 328 328 328 329 329 329 329 327 328 326 328 327 324 324 325 325 324 323 322 322 319 317 318 319 319 320 321 317 314 310 308 306 305 307 309 309 311 311 311 310 312 312 310 309 309 309 307 306 306 306 305 305 305 305 304 302 300
306 306 306 307 306 306 307 309 310 305 301 300 299 298 297 299 306 313 318 322 325 326 326 326 326 327 327 327 328 328 329 329 323 324 325 326 328 326 326 327 325 324 324 323 322 322 321 320 320 319 317 318 318 317 315 312 312 311 310 308 308 309 309 308 311 313 311 308 310 310 311 312 312 312 312 311 311 308 307 306 307 306 305 302 301
305 305 304 305 305 305 305 305 307 305 301 299 298 295 295 296 299 304 310 316 320 325 325 325 326 328 328 327 328 329 324 322 317 314 310 314 320 325 327 327 325 324 323 322 321 321 320 319 319 319 315 315 316 317 314 313 315 315 312 309 307 309 308 307 308 312 313 310 309 308 308 312 310 310 311 310 311 312 310 308 308 309 305 302 301
305 305 304 303 303 303 304 303 303 305 301 298 294 292 292 293 296 299 304 311 319 323 325 325 324 325 326 327 327 326 323 322 320 304 305 308 311 312 315 319 323 326 324 322 321 321 319 318 319 318 318 314 315 315 314 317 314 312 311 310 309 308 306 305 303 309 314 313 311 310 309 311 309 307 308 309 309 310 310 309 306 306 304 302 302
306 306 304 303 302 302 303 302 302 302 300 296 292 292 292 292 294 296 301 309 316 320 325 326 326 325 326 326 327 327 326 326 323 312 308 304 305 306 307 307 310 313 315 322 321 319 319 318 318 319 318 316 314 316 314 314 312 312 313 311 310 308 306 305 305 306 310 314 311 310 309 312 311 307 306 308 308 310 311 307 304 303 302 301 301
306 305 304 303 302 302 302 301 300 301 300 295 292 292 292 291 292 294 299 306 313 318 322 326 327 326 325 324 325 327 326 323 324 321 317 311 303 302 304 306 307 305 304 303 311 324 322 319 319 319 318 317 314 315 316 316 320 312 314 312 310 310 310 307 307 307 310 312 311 309 307 310 310 307 310 312 309 306 304 302 302 301 301 301 301
305 304 304 304 303 302 301 300 300 300 299 294 292 292 291 291 291 293 303 309 314 317 321 324 326 325 324 323 323 324 327 327 326 326 320 318 315 315 317 321 321 313 304 297 299 304 314 324 321 319 320 322 319 319 325 318 316 314 313 312 314 310 311 311 313 314 314 314 309 309 307 309 309 310 308 310 310 309 306 302 301 302 301 301 301
303 303 303 303 303 303 302 301 300 299 298 293 292 292 291 291 291 295 304 308 313 317 320 323 325 322 322 325 324 322 324 326 326 320 323 321 320 320 321 322 322 321 321 319 319 320 322 324 325 323 322 321 323 323 323 326 322 317 315 314 315 316 319 318 317 315 312 313 315 311 305 307 313 313 311 310 309 306 305 301 301 301 301 301 301
303 303 303 304 303 302 302 301 299 298 298 293 292 292 292 291 292 299 303 308 312 314 316 319 323 320 314 314 321 323 323 322 316 304 312 324 323 322 321 322 321 312 303 296 292 294 302 320 322 312 306 301 299 304 303 313 323 324 321 324 322 320 318 317 314 313 312 314 315 315 310 310 315 314 311 309 308 306 306 305 301 302 301 301 300
301 301 301 301 302 302 302 301 299 298 298 295 293 292 292 291 293 298 303 308 311 312 311 313 320 310 307 305 306 312 321 323 312 302 305 310 324 323 322 320 316 311 307 304 295 293 294 293 293 293 293 294 295 296 296 296 304 315 321 317 317 316 315 314 313 311 309 310 309 307 313 312 313 312 310 309 308 305 305 304 303 301 301 300 300
300 301 301 301 301 301 301 300 300 298 298 297 293 293 292 292 293 297 301 303 305 309 309 309 315 310 306 303 303 298 301 308 301 300 300 311 321 321 321 316 314 310 308 308 306 301 294 294 295 295 296 297 298 299 297 298 299 307 319 314 317 316 313 313 310 309 308 308 304 304 311 311 311 310 308 309 309 310 307 306 305 303 299 299 299
301 301 301 300 300 300 300 299 300 299 297 297 294 292 292 292 293 296 296 298 300 304 305 305 306 303 301 302 299 294 294 294 290 295 298 311 322 320 321 316 313 311 308 308 307 306 307 307 308 309 307 306 309 308 306 300 301 306 311 311 313 314 312 311 310 308 307 304 305 303 309 307 306 307 306 302 301 307 309 306 306 303 303 302 301
Wind_Speed
5 5 5 4 3 1 2 1 1 2 5 3 4 3 4 5 5 5 6 5 2 1 3 3 3 3 2 1 4 1 2 2 7 10 7 7 6 8 12 10 6 8 8 7 8 9 8 8 8 9 9 9 8 7 8 9 9 9 9 9 9 8 10 11 10 11 11 11 12 12 13 13 14 14 14 14 15 15 15 15 16 17 16 16 16
3 2 3 4 2 2 2 1 2 1 2 4 4 5 3 4 5 7 8 2 1 4 3 3 2 4 1 3 0 3 3 3 1 7 8 7 6 7 12 11 9 4 6 9 9 9 9 9 9 8 8 8 9 8 8 8 9 9 9 9 9 9 9 10 10 10 11 11 11 12 13 12 13 14 14 14 14 14 14 14 15 15 15 15 15
3 2 3 3 4 3 3 2 2 2 2 2 2 5 9 8 6 6 5 1 2 3 6 3 3 6 4 2 2 1 1 1 3 7 8 7 6 6 8 11 10 6 5 7 9 8 8 8 9 9 9 9 8 8 8 7 7 8 7 9 9 8 9 10 9 10 11 11 11 12 12 12 12 13 13 13 14 14 13 14 15 14 14 14 14
4 3 2 2 3 4 3 2 3 4 3 2 1 0 3 12 13 7 6 3 6 7 6 2 3 5 3 3 3 2 2 3 4 3 9 7 7 7 6 6 8 6 6 8 9 9 9 9 7 8 9 9 9 9 9 7 8 8 8 8 8 8 9 9 9 9 10 10 11 11 12 12 12 12 12 12 13 12 12 13 13 14 13 14 14
4 4 4 4 4 2 2 2 1 2 3 4 5 4 3 8 12 6 6 2 4 4 4 2 3 5 2 3 4 3 3 1 2 1 4 8 8 7 7 6 6 6 9 9 10 9 10 9 10 9 9 10 10 9 9 9 8 8 8 8 8 8 9 9 9 9 10 10 10 11 10 12 11 11 11 12 12 11 12 13 13 13 13 14 15
2 3 3 2 0 1 2 3 3 3 2 2 4 4 5 2 9 9 4 3 1 4 2 2 4 4 3 3 4 3 2 1 1 2 2 8 8 8 7 7 6 5 7 10 10 10 9 7 9 10 10 10 10 9 10 10 10 9 9 8 8 8 8 9 8 8 9 9 9 10 10 10 11 11 11 11 11 11 12 12 12 12 13 14 15
4 4 4 3 3 4 5 4 4 4 4 3 2 2 2 6 5 3 10 5 4 3 3 3 4 5 2 2 2 3 0 1 2 3 3 2 10 8 7 7 7 6 6 5 9 11 10 8 8 10 12 11 10 10 11 10 10 10 10 9 8 8 8 8 9 10 9 10 10 9 9 10 11 11 11 10 11 12 11 11 11 12 13 14 14
6 5 4 4 5 5 5 4 5 5 4 3 3 4 5 3 2 5 5 5 5 2 3 4 5 4 2 0 0 1 3 2 3 2 4 3 4 7 7 7 7 6 7 6 5 6 12 11 10 8 12 11 12 11 12 12 11 11 11 10 9 9 8 9 9 9 9 9 9 9 9 9 10 11 11 10 11 11 11 11 11 11 13 13 14
6 5 5 6 5 5 5 5 4 5 4 3 3 4 4 4 2 4 4 5 6 4 4 3 4 4 2 0 3 5 2 2 2 2 2 1 2 4 7 6 6 8 6 6 5 5 8 11 11 10 10 9 9 11 11 12 12 12 11 10 10 10 9 9 9 9 10 9 10 9 8 8 10 11 11 10 11 11 11 12 11 12 12 13 13
4 4 4 5 4 3 3 5 4 4 4 4 5 3 3 3 4 4 4 4 5 4 6 5 6 2 1 4 3 5 4 7 3 2 2 1 2 2 6 7 5 5 6 4 5 5 5 7 11 10 10 8 9 11 11 12 13 13 12 12 11 10 10 10 9 10 10 10 10 9 9 9 10 10 10 10 11 12 12 12 12 12 12 13 13
3 4 4 4 3 4 4 5 5 5 5 5 5 6 5 4 4 4 6 5 6 4 4 3 1 3 3 2 3 3 4 6 7 3 1 1 2 2 5 7 6 5 6 5 4 4 5 4 4 5 6 10 9 11 11 11 12 12 13 13 12 12 11 11 11 10 10 10 9 10 9 9 10 10 10 10 11 11 11 11 11 12 12 12 12
5 6 5 5 5 5 7 6 6 6 6 6 6 5 7 7 6 5 6 4 3 3 3 3 2 2 2 1 2 2 5 7 7 3 1 1 2 2 4 4 5 5 5 5 5 4 4 5 5 5 6 9 11 10 10 11 10 13 14 14 13 12 12 12 12 12 11 10 10 9 9 10 10 10 10 10 11 11 11 11 11 12 12 12 12
7 6 7 7 7 7 7 7 6 6 6 6 6 6 5 6 6 6 7 6 5 4 2 2 3 1 1 1 1 3 3 3 4 2 3 1 1 4 4 3 2 4 1 2 4 3 4 4 5 5 5 6 7 10 10 9 9 11 14 15 14 14 13 13 14 13 13 12 11 10 10 10 11 9 9 10 10 11 10 11 12 12 12 12 12
11 10 7 8 8 8 8 7 7 6 6 6 6 6 6 5 5 5 5 7 6 6 5 5 2 5 4 2 2 2 3 2 2 3 2 2 2 3 3 2 3 4 2 3 0 3 4 4 5 4 5 6 6 6 6 8 9 12 14 14 15 15 15 14 11 9 13 12 12 12 11 11 11 10 9 10 11 11 10 11 12 12 12 12 12
6 6 6 6 6 6 6 5 6 6 6 8 7 8 7 7 7 7 5 5 5 4 7 7 6 5 2 3 3 4 4 4 3 4 3 2 2 2 3 2 3 3 3 2 1 3 4 7 7 5 5 6 7 7 6 7 8 13 13 13 14 16 15 13 10 10 11 12 13 12 11 10 11 10 9 10 11 11 10 10 11 12 12 12 12
5 5 6 6 6 6 6 6 6 7 7 7 8 8 8 8 7 8 6 6 6 6 7 8 4 8 5 6 4 5 3 8 6 4 4 4 4 3 3 4 4 3 2 3 2 4 7 5 8 8 7 5 7 7 7 6 11 14 14 11 12 14 14 12 12 11 9 11 13 13 11 11 10 10 10 11 11 10 10 10 11 11 12 12 13
4 4 4 5 6 6 6 6 6 7 6 8 7 8 9 8 9 9 9 8 8 6 6 7 7 5 5 4 1 2 5 2 6 2 5 4 4 4 4 4 4 4 3 3 2 3 3 6 3 4 4 6 4 5 5 7 7 8 11 12 12 12 13 13 12 12 12 12 13 13 12 11 11 10 11 12 11 11 10 10 11 11 12 12 13
3 5 6 5 6 6 5 7 7 7 7 7 7 7 8 8 9 9 9 9 8 7 6 5 7 6 5 3 1 2 4 3 5 3 1 1 2 4 4 3 3 4 4 3 3 4 4 5 7 6 5 5 6 7 6 6 6 7 6 8 12 13 11 13 13 12 11 12 13 14 14 12 12 12 12 12 12 11 10 10 10 11 12 12 12
6 5 4 5 5 5 5 6 7 6 6 7 7 8 7 8 7 9 9 9 9 9 9 7 5 5 5 6 3 0 0 2 4 4 1 1 3 2 2 3 3 3 5 5 3 3 1 6 3 8 6 5 5 5 7 7 9 8 10 10 13 12 11 11 13 13 11 14 13 13 14 14 14 14 13 13 12 12 11 10 11 11 12 12 12
4 4 5 5 5 6 5 5 6 7 5 6 8 6 5 6 8 9 8 7 9 9 8 7 8 7 9 9 5 0 2 4 2 4 4 4 4 2 2 4 4 4 5 5 6 6 7 7 4 4 4 7 6 6 5 6 6 7 9 13 14 11 10 10 10 10 12 12 13 13 14 15 16 15 15 13 13 12 11 11 11 11 12 12 12
5 5 6 6 6 6 6 6 6 7 6 6 6 6 9 7 8 8 9 8 8 8 7 8 8 7 8 8 5 4 2 4 1 2 3 3 3 7 5 3 2 3 5 4 4 4 5 5 5 7 6 5 7 5 7 6 5 4 7 14 13 12 11 10 9 10 10 10 13 13 14 15 16 16 15 14 13 12 11 11 12 12 13 12 12
5 6 6 6 5 5 5 7 6 6 5 5 4 5 6 6 9 9 8 10 8 8 8 7 7 6 7 7 7 5 5 5 3 2 1 2 4 7 6 7 7 6 5 5 5 5 5 1 5 5 6 5 6 5 7 7 6 5 7 13 13 13 11 10 10 8 9 10 12 14 15 16 16 16 16 15 14 13 12 12 12 13 13 13 12
6 6 3 5 7 5 5 7 7 3 4 8 5 6 7 8 8 8 9 10 8 8 9 9 6 7 8 7 8 9 9 8 7 5 5 4 3 3 4 6 7 5 6 6 5 5 5 6 6 8 6 6 6 6 7 8 8 8 12 11 13 12 11 10 11 11 10 11 12 12 15 16 16 17 15 14 14 13 13 13 13 13 13 13 13
5 6 5 4 6 4 3 4 5 5 5 5 6 6 7 7 6 7 8 9 9 8 8 10 9 7 7 7 7 8 7 8 7 7 7 6 7 6 5 3 2 2 3 5 5 6 4 3 8 6 5 5 4 5 8 8 9 17 10 10 11 12 11 11 12 11 11 12 12 12 14 17 17 16 15 15 15 14 14 13 13 13 13 14 14
5 6 4 2 2 4 4 4 3 2 4 5 8 8 8 9 5 6 7 9 9 9 8 9 10 8 7 7 7 7 7 6 6 7 6 5 6 5 3 5 4 4 2 5 5 5 6 8 6 2 3 3 6 4 7 9 9 13 13 8 12 11 12 12 12 11 11 11 11 12 14 16 17 16 16 15 14 14 14 14 12 11 11 11 12
6 7 6 5 2 4 5 4 3 5 6 6 7 6 8 9 5 5 8 8 7 9 9 9 9 9 7 7 7 7 7 6 6 6 6 6 6 8 5 3 4 3 1 2 2 4 5 5 4 1 0 1 3 5 9 9 10 15 15 10 10 13 13 13 12 12 12 11 10 10 11 13 14 15 16 15 14 13 13 11 9 8 7 7 7
7 6 7 6 4 3 4 4 5 6 7 7 7 5 6 9 6 7 7 6 7 8 9 9 8 9 8 8 7 7 7 8 7 7 6 8 8 8 8 7 4 2 4 4 3 8 5 5 5 4 2 1 3 5 9 10 12 16 14 9 7 13 13 13 13 13 12 11 10 10 11 13 13 13 13 12 11 12 13 11 9 9 8 8 7
7 7 7 7 6 9 6 4 4 5 5 6 6 4 4 8 4 4 7 5 6 9 9 8 8 10 9 7 7 8 7 8 7 7 7 7 7 6 7 7 8 7 4 4 5 7 7 4 2 4 4 5 5 3 11 12 11 16 14 8 7 8 13 14 14 12 13 12 11 10 12 12 12 12 12 11 13 14 13 11 10 9 9 7 5
7 6 7 7 5 6 7 6 5 5 8 9 8 6 6 6 4 4 7 6 7 7 8 8 8 8 8 9 8 7 7 7 8 7 7 6 6 6 6 8 7 8 7 7 7 7 7 7 6 5 6 6 6 3 11 9 12 13 9 9 8 7 12 14 14 14 13 13 11 11 12 12 11 12 12 13 13 14 13 12 11 10 9 8 6
8 8 7 8 6 7 7 7 6 7 7 7 6 7 8 6 6 7 8 6 6 4 5 6 8 7 7 8 7 7 7 6 7 7 7 7 6 7 6 6 4 7 7 9 7 6 6 4 4 5 7 7 7 6 8 9 15 14 10 9 9 8 14 15 15 14 14 13 12 11 12 12 12 12 12 13 14 13 13 12 11 10 9 8 9
11 9 8 8 7 6 8 8 7 7 7 7 6 6 8 8 7 6 7 5 5 6 6 6 6 5 8 9 8 8 7 7 7 7 6 6 7 6 6 8 10 7 7 6 6 5 5 7 6 4 8 8 8 9 9 10 14 13 10 9 10 12 16 12 15 15 14 14 13 12 12 12 12 12 13 13 13 13 12 11 11 10 9 9 8
13 13 10 9 9 9 8 8 9 8 8 8 7 9 9 8 7 7 6 4 5 6 6 6 8 9 10 9 9 8 6 7 7 6 6 6 7 7 7 7 7 6 6 5 5 6 4 6 5 4 5 9 12 10 10 9 13 16 9 10 11 16 11 8 14 15 15 15 14 13 13 13 13 13 13 13 12 13 12 12 11 10 10 10 9
13 13 11 10 9 8 10 9 10 9 9 9 8 8 9 9 5 4 5 6 7 7 5 6 8 10 11 10 9 8 7 7 6 6 7 9 8 7 7 6 6 6 7 6 6 4 2 3 7 8 7 3 11 10 11 11 11 9 9 9 12 11 10 8 9 14 15 15 15 14 14 14 14 13 14 14 13 13 12 12 12 11 11 10 10
13 14 12 10 9 11 11 11 11 10 8 8 8 7 7 7 7 5 6 8 7 8 7 7 7 7 9 9 10 9 9 8 7 7 8 8 9 9 6 7 7 6 7 8 7 7 5 3 5 3 4 2 3 6 11 12 11 10 7 8 9 11 10 9 9 9 16 15 15 16 15 15 14 14 14 13 14 13 13 13 12 11 11 10 10
12 13 14 15 15 14 14 13 11 10 9 8 6 5 3 6 6 5 7 6 7 5 6 7 7 9 11 9 8 8 6 7 8 8 7 9 9 8 8 6 8 7 8 8 7 6 8 6 7 7 6 5 8 9 12 12 12 12 8 10 11 9 9 10 10 8 15 16 17 16 16 15 15 14 14 14 14 13 13 12 12 11 11 10 10
14 12 13 14 14 14 15 14 11 9 8 6 5 4 5 6 8 6 3 4 7 8 6 6 6 8 10 8 5 2 4 8 7 7 7 7 7 6 6 8 7 8 7 6 6 6 7 7 7 9 7 8 11 5 10 10 12 10 8 10 11 11 11 11 11 9 13 19 18 17 17 16 16 15 15 14 14 13 12 12 12 12 11 11 11
13 13 13 13 13 14 14 16 10 8 7 7 8 5 3 3 3 3 4 3 4 5 6 5 7 9 9 10 6 5 6 7 6 8 7 7 5 5 7 8 7 7 7 6 6 6 7 7 5 3 6 2 4 9 5 12 10 9 9 11 11 10 9 12 10 11 17 21 19 18 17 17 16 16 16 15 14 14 13 13 13 12 12 12 12
13 13 14 14 12 14 15 17 12 12 11 13 14 13 8 4 3 4 6 7 7 6 6 5 4 6 4 9 8 7 7 8 7 7 6 7 5 5 5 8 10 9 7 6 6 5 7 7 7 4 4 6 2 6 6 10 11 10 9 9 10 10 9 10 11 8 6 8 7 10 13 14 16 17 17 15 15 15 14 14 14 13 13 12 10
13 14 14 15 13 12 14 15 18 16 15 13 13 15 15 13 8 5 4 4 5 4 4 6 5 3 5 8 7 7 9 8 7 7 6 4 5 4 8 8 9 7 7 6 7 7 7 7 5 6 6 4 7 9 9 9 12 11 10 8 7 8 8 10 6 7 9 11 13 17 15 14 14 12 14 15 16 16 15 15 14 14 12 11 10
14 15 15 15 14 13 13 13 12 12 13 15 15 14 14 12 11 10 7 6 6 6 6 6 4 4 4 6 9 7 8 8 7 7 6 7 5 9 7 9 10 9 8 7 7 7 7 5 7 7 5 7 9 11 10 11 11 9 9 9 8 7 7 7 6 9 7 10 9 7 8 10 11 14 15 16 17 16 16 14 14 13 13 12 11
12 14 14 14 15 16 15 14 12 12 14 13 12 13 13 14 11 10 9 9 7 5 5 5 5 5 4 7 9 10 9 9 8 6 5 6 4 5 6 8 10 10 8 7 7 8 7 6 7 6 7 7 9 10 10 8 12 12 9 9 7 7 7 7 7 10 10 10 8 9 9 10 9 9 9 8 10 13 12 13 10 14 14 11 11
11 12 14 14 15 15 16 16 14 10 10 9 20 22 16 12 11 10 9 8 8 7 5 4 4 3 3 5 9 19 16 8 9 11 8 11 10 7 7 8 10 9 9 8 8 8 8 8 8 7 9 9 9 10 11 8 6 10 9 10 8 7 7 8 6 7 10 10 8 8 9 9 9 8 8 9 9 11 9 8 9 11 12 12 10
10 10 11 14 15 14 14 14 15 12 10 13 25 21 21 21 13 10 9 8 7 7 5 3 4 4 4 2 4 7 12 11 8 9 10 13 12 14 12 12 12 10 10 9 9 9 9 9 8 7 6 8 9 11 11 5 5 9 9 8 8 7 7 9 8 5 10 11 9 9 8 9 9 9 10 10 10 9 9 10 16 13 12 13 12
11 7 10 11 12 13 11 14 13 14 12 24 27 24 22 21 18 11 8 6 7 6 6 4 3 2 2 3 2 3 5 8 4 6 6 9 13 13 12 9 7 6 8 9 10 8 8 8 8 8 8 6 8 4 10 7 5 7 7 8 8 9 8 7 7 7 8 12 10 9 9 8 11 9 9 10 9 8 10 12 14 14 12 13 12
11 11 8 9 11 12 13 14 13 13 12 25 27 27 24 23 23 17 7 7 6 7 6 6 5 2 1 3 4 3 6 8 3 2 2 4 3 9 12 14 14 13 7 10 8 6 5 7 8 7 9 6 9 8 6 7 2 4 5 7 8 8 7 8 8 7 7 12 9 8 8 9 10 10 3 4 4 6 8 12 16 16 16 15 14
11 11 10 9 8 10 11 11 11 12 11 24 26 27 26 25 23 18 9 9 7 6 6 6 5 2 2 4 4 4 2 3 4 4 3 4 6 6 5 4 4 5 6 10 9 6 2 4 4 6 6 3 5 4 1 8 11 7 8 3 5 8 7 6 4 5 6 9 11 6 5 7 10 6 8 4 6 7 7 13 18 17 17 16 15
12 12 12 10 10 9 8 9 9 11 10 25 26 28 27 26 25 15 9 9 8 8 7 7 4 1 5 5 0 2 2 2 3 3 3 2 1 2 3 6 5 1 1 1 1 1 2 1 0 3 4 6 4 4 2 2 4 7 9 8 5 4 4 4 4 3 4 4 4 6 6 3 6 10 7 7 7 8 6 10 16 17 17 16 15
10 11 12 11 11 12 10 9 8 10 11 23 26 26 28 28 26 11 8 9 9 9 10 11 8 7 8 7 3 2 2 5 7 7 6 9 9 8 6 3 4 5 4 1 1 2 3 1 4 6 7 5 5 6 3 4 1 3 6 5 3 4 7 5 5 2 4 4 8 3 3 4 9 11 7 6 8 8 7 5 8 15 15 15 14
10 11 11 11 11 12 13 9 10 12 12 20 25 26 26 29 23 12 11 9 10 10 10 10 5 6 7 9 8 7 3 3 3 11 14 10 8 7 7 7 4 5 3 2 8 11 10 13 14 13 11 11 11 11 12 12 8 3 4 5 5 6 7 6 4 4 3 4 6 7 2 7 5 10 9 7 8 9 8 8 6 9 14 14 14
10 10 10 10 11 11 14 13 12 12 13 18 24 24 26 26 23 13 12 12 12 10 10 11 9 7 9 16 15 9 8 8 6 13 12 7 1 3 3 8 7 6 4 3 5 6 9 12 13 13 13 13 13 13 13 13 14 9 1 6 5 6 6 7 5 4 2 5 5 4 2 6 7 6 9 7 7 6 8 7 7 5 7 9 11
8 8 8 9 9 10 11 13 18 15 13 16 22 24 25 25 22 11 13 9 10 11 10 11 10 10 10 12 18 15 11 10 12 5 3 5 7 5 5 7 7 6 6 6 6 7 5 6 6 7 8 9 7 7 9 15 14 10 7 5 3 4 8 7 10 7 4 2 3 6 5 4 7 4 6 5 2 3 4 7 6 5 4 4 4
Wind_Direction
199 181 180 190 180 181 189 196 354 295 320 306 266 239 209 235 246 242 230 240 255 202 212 174 239 268 192 127 225 136 11 78 108 141 131 130 138 146 148 137 129 150 162 142 145 149 145 139 142 141 142 144 130 125 119 123 124 120 118 113 110 109 104 105 103 105 102 97 94 91 89 90 88 86 85 85 82 81 78 77 76 72 72 75 75
215 184 196 176 173 189 195 180 188 148 333 309 325 311 276 241 240 249 248 195 259 296 240 189 183 253 196 221 277 47 43 354 150 96 135 131 131 145 151 150 142 132 150 157 151 154 150 150 147 152 140 134 140 140 135 132 131 130 128 122 116 115 114 106 110 109 104 99 96 94 94 90 89 87 85 83 81 82 81 80 77 74 74 74 75
196 198 207 169 172 182 199 182 196 170 178 220 337 343 326 294 250 244 254 260 257 287 255 210 196 233 202 179 101 63 90 316 289 123 129 131 135 142 151 150 144 141 195 154 160 157 153 152 157 154 147 144 143 143 142 143 141 131 120 117 124 122 119 118 111 107 109 109 107 102 97 91 87 88 87 84 83 83 83 80 75 74 74 75 75
192 209 208 180 194 190 191 179 195 202 185 150 172 150 281 295 268 238 253 194 166 234 240 221 233 253 190 178 144 175 189 200 259 147 135 138 147 142 140 148 152 167 177 167 162 166 166 164 166 147 149 152 153 154 155 154 146 146 136 131 130 130 123 114 116 111 110 107 104 101 100 98 91 87 84 86 86 84 82 77 76 74 73 73 73
182 198 207 194 203 194 138 217 195 218 190 203 197 186 215 273 276 251 249 271 90 238 250 238 247 261 193 194 138 186 190 196 259 286 156 144 146 141 147 156 160 179 170 167 172 174 179 176 163 169 159 160 166 162 156 158 155 148 147 142 141 134 126 129 125 122 115 109 106 102 99 101 100 97 93 93 91 88 84 78 74 73 75 74 74
213 212 225 227 251 213 201 208 182 194 216 217 230 195 181 191 285 295 280 301 170 223 280 279 268 275 236 213 159 184 155 224 227 244 258 148 141 147 155 156 155 150 162 173 177 184 185 190 181 168 172 174 171 161 164 162 160 161 153 155 144 140 136 127 128 123 111 113 113 104 100 101 98 99 100 99 95 96 88 80 79 79 78 78 79
208 194 198 196 195 219 229 219 179 192 204 212 238 323 213 195 199 357 310 285 269 191 205 249 263 257 252 67 229 126 96 207 230 241 218 175 138 158 159 153 148 156 162 162 179 183 181 185 195 183 173 178 178 173 169 169 167 164 161 159 159 149 144 139 138 129 128 125 117 111 109 107 101 102 106 100 99 91 85 86 84 84 84 83 81
205 198 201 206 211 213 204 196 191 189 204 193 184 195 224 251 132 160 196 283 295 250 197 235 249 273 271 154 271 125 161 226 240 223 244 174 170 139 143 145 156 156 161 164 168 180 184 188 192 194 183 180 186 182 174 172 172 169 164 166 164 162 157 152 139 133 130 123 122 125 119 107 109 110 109 110 96 89 90 87 90 90 86 83 79
211 202 191 213 218 214 191 194 181 199 185 182 205 203 203 215 173 193 207 207 228 238 285 252 231 249 278 209 7 356 314 312 246 228 312 181 198 140 127 149 156 156 147 157 164 161 185 191 194 187 188 192 193 188 179 175 176 173 166 169 171 169 166 161 156 150 144 140 132 121 120 118 118 114 113 109 96 93 95 99 100 96 90 84 82
224 215 204 220 230 232 214 191 190 201 201 182 202 202 206 195 198 196 206 248 234 181 211 242 239 218 24 44 45 344 334 277 306 248 221 140 264 136 133 141 131 137 148 162 160 151 164 190 194 189 190 190 205 198 187 177 182 174 172 171 174 172 171 168 163 158 153 146 136 134 131 125 115 116 119 107 97 97 97 99 96 89 85 82 81
221 229 207 207 231 251 246 216 199 203 212 207 202 201 196 194 212 207 187 217 224 217 206 193 92 99 198 98 123 233 306 302 279 268 297 230 234 173 115 149 149 155 163 162 142 160 161 161 186 188 193 194 196 205 192 187 182 182 174 178 177 175 174 172 167 166 160 159 151 137 132 130 124 126 126 114 106 101 94 92 94 93 87 84 82
217 214 199 198 214 224 228 224 210 203 213 214 216 203 193 188 202 204 198 204 220 220 214 197 129 119 176 125 161 149 232 256 261 282 268 287 352 63 80 109 134 160 167 157 147 170 175 169 185 187 188 190 195 202 198 194 189 186 178 181 182 179 178 179 173 172 171 167 157 139 142 134 132 138 128 115 111 107 100 98 95 91 88 85 82
264 241 188 190 209 224 227 217 214 210 213 219 217 218 206 197 195 194 197 207 207 200 208 144 143 150 90 151 100 207 247 234 258 259 240 238 69 57 65 86 71 62 5 115 151 157 194 190 189 194 183 166 188 198 200 183 186 189 188 183 184 184 184 186 181 175 173 169 157 154 152 141 137 143 131 114 113 105 100 99 97 95 92 88 85
204 217 209 198 200 211 217 214 205 212 213 214 215 221 212 204 195 206 198 199 213 178 177 137 182 195 168 137 218 267 260 269 276 279 273 92 82 74 82 65 58 71 91 280 73 174 207 220 206 193 186 155 169 174 192 183 192 196 197 191 186 187 187 189 184 181 170 167 160 157 155 148 145 149 141 125 120 107 105 103 101 99 94 91 89
197 200 213 221 221 220 224 218 211 208 213 218 212 211 214 210 202 206 198 202 219 188 183 189 185 178 132 104 187 204 254 264 218 238 253 241 112 112 105 99 112 163 179 167 202 208 231 223 210 195 177 157 165 172 178 181 196 198 200 197 195 191 190 188 176 195 172 168 163 159 157 154 153 153 138 129 118 109 109 107 105 102 100 96 94
213 208 212 226 227 227 226 222 220 215 216 217 216 218 207 213 212 219 199 203 207 212 194 196 194 152 201 193 184 188 191 211 209 216 203 208 183 180 140 150 146 164 159 194 208 210 233 269 201 178 174 172 156 164 176 179 194 194 200 194 201 199 193 188 180 195 162 172 166 158 161 161 161 155 140 131 115 113 112 113 113 110 106 102 100
215 220 225 224 230 230 225 226 225 228 237 235 221 216 212 209 204 207 203 204 205 204 199 192 206 210 151 131 197 211 214 166 167 198 176 196 214 166 155 147 164 175 172 183 209 254 11 272 30 345 167 154 141 155 169 179 172 177 191 199 196 207 186 190 187 182 178 179 172 158 160 166 163 147 140 123 122 119 119 120 119 116 111 108 105
223 205 230 232 234 239 235 233 235 220 214 230 229 221 217 212 204 203 212 212 210 192 201 199 199 203 219 208 291 174 169 170 135 186 144 210 213 182 160 164 156 175 179 170 183 207 211 258 140 200 195 154 164 172 162 170 161 170 173 194 194 201 191 189 192 178 183 189 169 162 161 164 160 149 136 129 127 125 128 126 123 120 117 114 110
269 265 241 244 246 247 243 237 242 237 206 215 235 240 222 214 207 206 210 206 211 215 202 196 183 224 244 242 246 298 62 142 181 98 186 252 230 163 172 168 184 198 186 188 176 211 275 275 193 184 163 169 165 160 156 167 164 175 174 183 186 194 181 187 194 185 178 178 160 162 166 163 158 148 138 136 132 135 134 133 127 123 121 119 118
280 285 269 248 241 249 256 251 245 251 229 210 224 237 252 242 219 217 206 205 210 213 208 190 189 198 207 225 222 257 353 334 250 154 135 162 204 201 208 186 195 210 223 187 169 178 189 226 222 152 209 176 169 172 139 140 156 168 175 174 180 173 173 183 183 182 182 170 152 163 167 170 155 148 142 140 138 135 139 135 132 128 125 123 121
294 278 273 264 256 240 246 251 245 246 246 242 215 214 234 229 237 222 217 209 214 213 202 201 194 199 180 212 204 202 185 238 261 126 138 145 183 186 193 155 186 212 215 185 143 159 199 215 223 195 177 186 161 168 146 135 125 125 155 164 167 164 170 172 168 168 201 169 160 163 167 164 154 148 144 143 139 141 141 139 134 132 128 125 125
294 280 280 278 268 278 252 248 262 270 286 270 246 238 237 234 234 228 216 221 216 212 209 203 200 194 184 175 188 184 212 209 209 147 129 164 177 191 188 174 195 209 194 197 163 170 196 175 299 225 172 178 183 175 143 133 123 128 148 153 156 158 164 160 166 177 161 145 161 165 162 157 156 152 148 146 144 148 144 140 140 138 134 130 129
288 286 268 293 286 265 284 285 272 282 292 282 289 259 241 225 212 214 219 215 211 205 211 216 193 198 194 186 192 190 192 190 191 184 172 159 171 210 176 189 193 176 198 182 173 175 182 170 219 236 173 177 200 151 136 138 145 131 143 150 154 157 159 156 159 159 147 151 158 165 162 162 161 154 153 154 150 150 149 147 146 143 138 134 131
295 291 271 255 276 287 276 279 297 323 300 315 292 287 281 260 230 209 214 214 212 204 205 210 202 198 203 196 203 200 198 198 193 182 185 185 179 187 185 150 185 212 150 167 177 182 148 203 234 220 168 187 192 158 151 144 128 134 140 152 155 155 155 155 153 144 150 155 158 163 164 165 159 161 161 156 154 154 155 151 147 146 145 141 136
278 280 276 253 279 290 297 291 308 232 264 262 260 252 260 261 237 222 212 219 208 203 201 202 198 197 199 195 191 195 200 199 188 187 187 177 176 164 175 164 175 179 195 167 180 186 178 193 238 304 172 187 188 162 118 122 138 140 140 155 153 153 155 153 145 143 146 146 154 161 169 163 163 166 161 158 158 156 154 152 146 150 153 146 139
302 296 295 297 298 287 287 293 295 291 272 265 264 261 264 262 250 247 230 223 218 208 204 200 206 200 187 184 192 193 201 204 194 175 177 170 178 183 156 165 173 172 119 182 174 164 199 192 190 207 355 203 219 112 131 134 136 146 144 149 159 155 155 150 147 147 147 146 152 158 158 152 159 165 162 161 159 158 146 130 136 132 121 118 124
313 313 304 300 281 272 261 264 273 279 283 277 272 246 263 262 242 242 239 226 215 208 214 199 198 196 191 188 188 194 196 195 189 194 185 188 180 176 161 161 171 167 175 190 196 216 186 181 174 172 207 237 253 152 139 146 148 149 142 145 158 160 153 151 149 150 150 151 155 156 149 152 163 163 162 162 152 135 133 140 138 135 131 126 110
308 310 304 302 323 305 285 264 251 248 258 274 269 280 291 268 270 287 288 277 237 213 209 198 200 195 197 189 190 204 197 191 190 194 197 188 183 175 174 173 170 187 175 183 197 218 200 159 149 176 171 211 235 225 140 143 148 149 146 148 153 164 158 154 154 151 153 157 158 158 156 161 167 161 159 148 144 146 146 148 149 143 143 140 130
306 299 294 293 286 277 286 285 283 271 270 270 269 260 260 268 259 258 247 240 255 237 234 217 202 196 200 195 199 203 200 187 190 192 192 181 184 187 179 184 180 174 176 197 203 191 209 170 172 185 176 213 204 172 140 148 153 153 152 153 157 166 165 159 157 156 156 160 160 162 165 168 166 158 154 153 153 154 154 155 154 153 155 157 159
323 315 310 301 301 298 285 283 281 284 276 278 282 283 275 267 236 236 248 235 241 276 275 249 211 200 197 196 203 209 201 197 196 193 183 181 181 196 190 175 210 201 178 187 196 191 188 187 170 154 196 200 197 166 146 147 159 161 157 157 160 169 168 164 161 160 161 162 161 164 169 170 168 162 160 159 159 159 160 161 163 165 170 177 176
322 323 320 317 316 303 293 290 293 290 281 267 270 286 281 258 245 242 245 246 224 227 226 248 264 243 204 198 206 210 198 199 199 197 183 176 190 193 195 170 202 212 177 166 164 197 181 182 184 174 181 210 195 176 150 150 167 169 162 152 167 164 166 167 166 165 165 165 163 165 170 170 172 168 167 167 166 166 165 170 173 176 183 187 186
326 323 325 325 320 314 303 299 295 287 277 269 246 244 241 240 232 225 224 221 227 227 227 215 222 226 229 203 204 207 204 198 196 193 192 191 189 197 197 181 174 183 167 160 181 165 188 169 144 194 192 205 217 179 147 153 170 181 166 162 162 158 165 169 173 170 170 169 168 169 172 171 174 174 173 174 174 172 173 177 181 185 188 189 193
327 321 325 324 323 318 310 301 296 291 283 280 261 243 241 236 231 224 236 257 257 255 233 231 233 237 221 209 200 208 205 206 197 194 197 200 193 195 188 177 174 172 168 172 181 137 113 114 154 186 203 225 231 176 144 156 171 184 191 157 151 160 167 169 177 178 175 174 173 173 175 174 176 177 177 177 177 176 178 180 184 189 190 195 201
334 327 331 337 335 329 318 306 296 293 290 289 270 247 244 235 222 216 229 229 229 225 228 239 238 250 247 212 204 198 201 206 203 200 196 199 190 192 186 176 181 174 180 174 183 165 157 137 157 186 155 158 241 185 148 156 171 182 179 136 156 163 170 167 173 185 183 179 178 178 177 178 178 180 179 180 179 181 182 184 186 190 194 199 207
343 346 352 350 346 336 323 307 291 287 288 286 276 257 230 277 270 214 219 243 259 252 244 247 249 245 241 232 219 192 181 206 207 210 201 198 195 187 187 180 188 176 197 195 173 169 163 174 169 175 178 186 200 206 152 162 166 181 163 156 161 171 170 172 175 182 185 183 183 181 181 180 181 181 181 184 185 186 187 187 189 192 198 204 210
351 353 351 350 346 339 328 316 303 293 288 293 301 288 266 252 256 272 306 224 245 256 270 269 261 270 275 263 232 172 202 212 207 215 217 207 205 153 166 180 193 174 195 212 192 170 172 161 180 175 172 178 222 257 150 159 162 182 169 164 170 181 175 173 177 181 184 186 185 185 184 184 184 185 185 187 189 190 191 191 193 197 202 207 212
357 353 350 348 347 346 338 331 327 330 335 322 308 303 279 286 327 301 246 251 258 244 232 231 249 253 238 234 232 203 214 213 210 212 207 217 187 167 179 162 194 193 190 197 187 170 160 159 136 141 149 109 199 235 182 158 170 180 187 175 183 189 183 169 179 181 177 186 186 187 186 186 187 188 189 189 191 193 195 197 199 203 206 210 214
359 358 354 352 351 348 347 338 352 355 360 7 7 350 330 296 294 293 304 287 280 268 267 273 263 266 247 228 218 201 215 220 214 214 211 214 200 171 118 132 186 203 185 185 180 164 163 159 145 139 139 145 223 234 245 172 169 175 194 196 182 186 189 172 182 171 130 168 174 193 191 191 192 191 191 192 194 197 199 201 204 207 211 214 215
1 2 356 354 353 347 351 5 25 24 27 24 18 8 351 348 340 305 283 267 265 278 276 266 269 267 263 248 246 210 208 212 211 211 214 204 204 90 143 163 179 190 186 187 177 174 165 147 145 155 147 151 161 239 245 208 176 174 175 199 197 183 181 178 167 145 159 176 191 185 186 191 191 193 197 198 200 203 203 205 208 210 212 213 211
4 3 359 357 355 355 360 6 21 20 18 21 16 5 358 349 343 341 325 302 279 269 261 266 270 271 279 272 266 240 217 210 207 202 203 218 172 163 173 155 164 183 189 177 175 177 170 161 156 168 176 159 176 219 224 204 174 176 184 187 190 188 176 177 150 152 161 165 175 190 206 194 192 198 200 204 207 207 207 209 211 211 212 209 207
8 4 1 2 1 2 359 2 14 29 26 17 13 1 352 347 341 332 328 324 314 289 277 272 253 247 247 266 266 260 230 213 210 213 195 196 158 161 161 160 171 177 171 170 169 177 179 173 170 172 184 181 192 210 223 208 175 180 178 178 177 184 163 165 154 157 157 169 181 178 188 190 193 200 200 206 219 213 217 211 211 214 213 205 202
14 6 5 4 7 4 3 5 3 28 26 19 2 359 359 349 333 332 328 329 326 310 290 281 290 279 243 236 244 255 251 213 201 207 201 201 196 190 175 174 170 178 173 169 172 174 177 178 188 184 183 199 197 207 220 220 180 168 166 167 167 181 159 165 172 162 167 164 169 179 196 187 193 196 193 210 215 195 208 194 216 207 203 195 183
18 13 9 11 8 4 5 4 4 12 20 6 359 359 354 352 347 331 323 315 311 307 294 293 289 290 309 270 265 268 263 239 213 176 182 185 174 178 173 171 178 176 177 175 176 173 176 181 188 198 196 193 208 196 210 213 180 157 163 162 162 174 169 165 185 175 172 165 172 179 193 187 185 195 201 208 206 194 191 201 207 196 171 180 181
13 19 18 17 10 4 4 4 6 5 12 2 359 357 355 350 345 329 302 301 309 308 303 281 265 278 296 311 273 173 248 271 261 176 178 178 173 173 178 173 192 215 200 181 167 173 181 180 191 198 200 204 209 188 192 209 195 158 162 161 166 175 179 173 178 181 184 167 175 179 192 184 187 196 200 207 203 191 188 189 172 162 148 146 144
7 14 25 16 21 13 6 3 359 1 10 2 358 356 354 351 345 337 300 295 301 305 312 312 302 276 109 286 301 238 231 219 222 317 182 129 137 159 177 181 175 195 171 104 147 170 188 194 194 198 202 195 191 203 191 168 36 206 160 160 177 172 180 184 187 180 191 181 166 175 182 187 180 195 124 30 80 91 105 122 133 135 133 134 135
7 8 13 22 24 22 12 5 1 359 9 1 359 357 355 351 345 336 309 317 303 302 301 297 287 24 354 291 282 296 231 147 197 207 231 190 155 148 153 150 170 196 120 124 140 139 173 220 198 202 204 180 177 182 178 155 172 188 170 208 184 180 182 188 198 180 184 178 185 162 178 173 187 120 104 93 92 86 95 122 125 128 130 133 137
7 4 3 13 17 18 17 11 5 4 9 6 3 359 357 352 345 335 326 326 324 323 319 311 326 192 259 264 296 306 342 133 159 258 196 232 145 127 161 168 168 183 51 45 55 113 132 254 222 96 57 22 53 59 19 43 152 171 171 197 217 179 147 109 69 76 135 151 141 140 179 199 118 105 117 120 104 96 103 123 128 131 134 139 144
15 8 1 6 10 12 17 14 6 7 7 9 6 3 359 355 347 340 334 332 336 340 349 348 10 25 16 5 345 148 187 217 207 123 209 199 188 188 184 177 107 96 57 58 278 300 1 321 86 99 101 87 54 73 21 5 53 116 124 128 141 126 127 120 124 64 66 32 35 55 122 64 108 118 124 121 116 105 102 86 126 135 143 148 150
23 18 6 6 6 9 12 18 11 9 8 10 6 4 3 0 356 345 339 336 344 355 0 350 15 57 32 11 358 346 311 256 177 174 203 196 186 191 191 165 137 124 104 105 62 57 69 85 95 100 100 86 69 53 35 29 30 353 139 137 181 156 134 137 121 92 39 21 34 31 74 122 131 120 129 134 124 129 131 140 163 164 153 157 158
30 25 13 9 9 11 13 13 15 13 7 10 7 4 4 4 3 350 355 355 352 358 358 2 23 36 34 32 22 358 345 341 339 199 217 197 324 315 185 141 147 137 134 114 83 53 75 92 98 100 96 87 74 58 49 41 29 20 320 192 175 143 145 143 131 109 67 36 20 357 86 116 118 111 115 120 112 124 141 147 159 148 169 164 162
31 30 22 13 13 15 19 14 12 13 12 8 7 6 7 7 7 357 3 352 354 359 6 1 14 19 10 10 15 9 351 342 359 36 16 248 195 192 184 159 150 152 153 148 125 124 127 105 96 97 79 70 64 65 52 47 43 41 52 50 7 175 159 141 129 125 90 332 358 344 100 76 101 111 119 120 99 123 134 146 155 154 163 162 162